Date String (YYYY-MM-DD hh:mm:ss) UTC,Instrument flags,absolute air pressure of the measurement (hPa),sample flow rate (lpm),inlet stack bypass flow (lpm),air temperature of the measurement (°C),ambient temperature measured by the external sensor (°C),aerosol sample conditioner tube jacket temperature (°C),OPC LED temperature (°C),internal box temperature (°C),relative humidity of the measurement (%),span deviation,mass concentration of particles derived from Lorenz-Mie calculation of OPC scattering (μg/m³),mass concentration of particles derived from Lorenz-Mie calculation of OPC scattering (μg/m³),mass concentration of particles derived from Lorenz-Mie calculation of OPC scattering (μg/m³)
DateTimeUTC,F1_M11,P_M11,Q1_M11,Q2_M11,T1_M11,T2_M11,T3_M11,T4_M11,T5_M11,U1_M11,ZSPAN_M11,X0_M11,X2_M11,X1_M11
2023-07-26 10:00:00,SystemResetWarning,0833.8,5.00,000.00,029.1,027.1,000.0,037.5,030.7,21.4,0000.0,0006.47,0003.14,0002.21
2023-07-26 10:01:00,SystemResetWarning,0833.8,5.00,000.00,029.1,027.3,000.0,037.5,030.7,21.2,0000.0,0006.41,0003.14,0002.20
2023-07-26 10:02:00,SystemResetWarning,0833.8,5.00,000.00,029.1,027.6,000.0,037.5,030.8,21.3,0000.0,0006.29,0003.13,0002.20
2023-07-26 10:03:00,SystemResetWarning,0833.8,5.01,000.00,029.2,027.8,000.0,037.5,030.9,21.1,0000.0,0006.23,0003.13,0002.19
2023-07-26 10:04:00,SystemResetWarning,0833.8,5.00,000.00,029.2,027.9,000.0,037.6,030.9,21.3,0000.0,0006.24,0003.13,0002.17
2023-07-26 10:05:00,SystemResetWarning,0833.8,5.00,000.00,029.2,028.1,000.0,037.6,031.0,21.0,0000.0,0006.31,0003.13,0002.16
2023-07-26 10:06:00,SystemResetWarning,0833.8,5.00,000.00,029.3,028.0,000.0,037.6,031.0,21.0,0000.0,0006.48,0003.14,0002.15
2023-07-26 10:07:00,SystemResetWarning,0833.8,4.99,000.00,029.3,026.2,000.0,037.5,030.8,21.1,0000.0,0006.84,0003.19,0002.14
2023-07-26 10:08:00,SystemResetWarning,0833.8,5.01,000.00,029.2,024.8,000.0,037.4,030.5,21.2,0000.0,0006.37,0003.19,0002.14
2023-07-26 10:09:00,SystemResetWarning,0833.8,5.01,000.00,029.1,024.8,000.0,037.3,030.3,21.3,0000.0,0006.34,0003.20,0002.14
2023-07-26 10:10:00,SystemResetWarning,0833.8,4.99,000.00,029.0,025.2,000.0,037.4,030.2,21.5,0000.0,0006.80,0003.24,0002.14
2023-07-26 10:11:00,SystemResetWarning,0833.8,5.00,000.00,028.9,025.6,000.0,037.4,030.3,21.6,0000.0,0006.82,0003.24,0002.14
2023-07-26 10:12:00,SystemResetWarning,0833.8,5.00,000.00,028.9,026.1,000.0,037.4,030.4,21.7,0000.0,0006.82,0003.25,0002.15
2023-07-26 10:13:00,SystemResetWarning,0833.8,5.00,000.00,028.9,026.5,000.0,037.4,030.5,21.7,0000.0,0006.82,0003.25,0002.14
2023-07-26 10:14:00,SystemResetWarning,0833.8,4.99,000.00,029.0,026.8,000.0,037.4,030.5,21.5,0000.0,0006.82,0003.23,0002.13
2023-07-26 10:15:00,SystemResetWarning,0833.8,5.00,000.00,029.0,027.1,000.0,037.4,030.6,21.4,0000.0,0006.88,0003.23,0002.14
2023-07-26 10:16:00,SystemResetWarning,0833.8,5.00,000.00,029.0,027.4,000.0,037.4,030.7,21.5,0000.0,0007.23,0003.22,0002.13
2023-07-26 10:17:00,SystemResetWarning,0833.8,5.00,000.00,029.0,027.6,000.0,037.5,030.7,21.5,0000.0,0007.74,0003.21,0002.13
2023-07-26 10:18:00,SystemResetWarning,0833.8,5.01,000.00,029.1,027.8,000.0,037.5,030.8,21.3,0000.0,0008.02,0003.18,0002.12
2023-07-26 10:19:00,SystemResetWarning,0833.8,5.01,000.00,029.1,027.9,000.0,037.5,030.9,21.1,0000.0,0007.98,0003.18,0002.14
2023-07-26 10:20:00,SystemResetWarning,0833.8,4.99,000.00,029.2,028.1,000.0,037.5,030.9,21.1,0000.0,0008.02,0003.20,0002.17
2023-07-26 10:21:00,SystemResetWarning,0833.8,4.99,000.00,029.2,028.2,000.0,037.5,031.0,21.1,0000.0,0007.67,0003.17,0002.17
2023-07-26 10:22:00,SystemResetWarning,0833.7,4.99,000.00,029.2,027.2,000.0,037.5,030.9,21.1,0000.0,0007.47,0003.12,0002.15
2023-07-26 10:23:00,SystemResetWarning,0833.7,5.01,000.00,029.2,025.8,000.0,037.4,030.7,21.1,0000.0,0007.63,0003.15,0002.16
2023-07-26 10:24:00,SystemResetWarning,0833.7,5.00,000.00,029.1,025.7,000.0,037.3,030.5,21.2,0000.0,0007.72,0003.16,0002.17
2023-07-26 10:25:00,SystemResetWarning,0833.8,5.01,000.00,029.1,026.0,000.0,037.4,030.4,21.5,0000.0,0008.09,0003.16,0002.18
2023-07-26 10:26:00,SystemResetWarning,0833.8,5.00,000.00,029.0,026.3,000.0,037.4,030.5,21.6,0000.0,0008.14,0003.18,0002.18
2023-07-26 10:27:00,SystemResetWarning,0833.8,4.99,000.00,029.0,026.7,000.0,037.5,030.6,21.6,0000.0,0007.96,0003.16,0002.17
2023-07-26 10:28:00,SystemResetWarning,0833.8,5.00,000.00,029.1,027.0,000.0,037.5,030.7,21.7,0000.0,0007.49,0003.18,0002.18
2023-07-26 10:29:00,SystemResetWarning,0833.8,5.00,000.00,029.1,027.3,000.0,037.5,030.7,21.7,0000.0,0006.68,0003.19,0002.19
2023-07-26 10:30:00,SystemResetWarning,0833.8,5.00,000.00,029.1,027.5,000.0,037.5,030.8,21.4,0000.0,0007.08,0003.25,0002.19
2023-07-26 10:31:00,SystemResetWarning,0833.8,5.01,000.00,029.2,027.7,000.0,037.5,030.8,21.4,0000.0,0007.39,0003.28,0002.19
2023-07-26 10:32:00,SystemResetWarning,0833.8,5.00,000.00,029.2,027.9,000.0,037.6,030.9,21.3,0000.0,0007.37,0003.27,0002.20
2023-07-26 10:33:00,SystemResetWarning,0833.8,5.00,000.00,029.2,028.1,000.0,037.6,031.0,21.2,0000.0,0007.44,0003.29,0002.22
2023-07-26 10:34:00,SystemResetWarning,0833.8,4.98,000.00,029.3,027.6,000.0,037.6,031.0,21.0,0000.0,0007.56,0003.24,0002.22
2023-07-26 10:35:00,SystemResetWarning,0833.8,5.01,000.00,029.2,025.9,000.0,037.4,030.8,21.1,0000.0,0007.43,0003.21,0002.21
2023-07-26 10:36:00,SystemResetWarning,0833.8,5.02,000.00,029.2,025.6,000.0,037.4,030.6,21.1,0000.0,0006.96,0003.22,0002.20
2023-07-26 10:37:00,SystemResetWarning,0833.8,5.00,000.00,029.1,025.8,000.0,037.4,030.5,21.2,0000.0,0006.96,0003.24,0002.21
2023-07-26 10:38:00,SystemResetWarning,0833.8,5.00,000.00,029.1,026.2,000.0,037.5,030.5,21.2,0000.0,0006.95,0003.25,0002.21
2023-07-26 10:39:00,SystemResetWarning,0833.8,5.00,000.00,029.1,026.5,000.0,037.5,030.6,21.4,0000.0,0007.06,0003.27,0002.22
2023-07-26 10:40:00,SystemResetWarning,0833.9,4.99,000.00,029.1,026.9,000.0,037.5,030.6,21.3,0000.0,0006.98,0003.25,0002.23
2023-07-26 10:41:00,SystemResetWarning,0833.8,5.00,000.00,029.1,027.2,000.0,037.5,030.7,21.2,0000.0,0006.79,0003.22,0002.23
2023-07-26 10:42:00,SystemResetWarning,0833.8,5.00,000.00,029.1,027.5,000.0,037.5,030.8,21.3,0000.0,0007.07,0003.19,0002.25
2023-07-26 10:43:00,SystemResetWarning,0833.8,5.00,000.00,029.2,027.7,000.0,037.6,030.9,21.1,0000.0,0007.84,0003.22,0002.26
2023-07-26 10:44:00,SystemResetWarning,0833.9,4.99,000.00,029.2,027.9,000.0,037.6,030.9,21.0,0000.0,0008.09,0003.24,0002.25
2023-07-26 10:45:00,SystemResetWarning,0833.8,4.99,000.00,029.2,028.0,000.0,037.6,031.0,21.0,0000.0,0008.26,0003.27,0002.25
2023-07-26 10:46:00,SystemResetWarning,0833.9,5.01,000.00,029.3,027.9,000.0,037.6,031.0,20.9,0000.0,0008.27,0003.32,0002.26
2023-07-26 10:47:00,SystemResetWarning,0833.9,5.00,000.00,029.3,026.4,000.0,037.5,030.8,20.9,0000.0,0008.31,0003.36,0002.27
2023-07-26 10:48:00,SystemResetWarning,0833.9,5.01,000.00,029.2,025.7,000.0,037.4,030.7,21.0,0000.0,0008.32,0003.38,0002.29
2023-07-26 10:49:00,SystemResetWarning,0833.9,5.01,000.00,029.2,025.9,000.0,037.4,030.5,21.7,0000.0,0008.35,0003.38,0002.30
2023-07-26 10:50:00,SystemResetWarning,0834.0,4.99,000.00,029.1,026.2,000.0,037.5,030.5,22.3,0000.0,0008.31,0003.38,0002.30
2023-07-26 10:51:00,SystemResetWarning,0834.1,5.00,000.00,029.1,026.6,000.0,037.5,030.6,24.4,0000.0,0008.37,0003.40,0002.30
2023-07-26 10:52:00,SystemResetWarning,0834.0,5.00,000.00,029.1,026.9,000.0,037.5,030.7,24.1,0000.0,0008.37,0003.38,0002.28
2023-07-26 10:53:00,SystemResetWarning,0834.0,5.00,000.00,029.1,027.2,000.0,037.6,030.8,23.3,0000.0,0008.23,0003.36,0002.26
2023-07-26 10:54:00,SystemResetWarning,0834.0,5.01,000.00,029.2,027.5,000.0,037.6,030.8,23.5,0000.0,0007.51,0003.38,0002.25
2023-07-26 10:55:00,SystemResetWarning,0834.0,5.00,000.00,029.2,027.7,000.0,037.6,030.9,23.2,0000.0,0007.27,0003.36,0002.27
2023-07-26 10:56:00,SystemResetWarning,0834.0,4.99,000.00,029.2,027.9,000.0,037.6,030.9,23.0,0000.0,0006.43,0003.33,0002.28
2023-07-26 10:57:00,SystemResetWarning,0834.0,4.99,000.00,029.3,028.0,000.0,037.6,031.0,23.0,0000.0,0006.23,0003.30,0002.28
2023-07-26 10:58:00,SystemResetWarning,0834.0,5.00,000.00,029.3,028.1,000.0,037.7,031.0,22.8,0000.0,0006.12,0003.28,0002.30
2023-07-26 10:59:00,SystemResetWarning,0834.0,4.99,000.00,029.3,026.8,000.0,037.6,030.9,22.6,0000.0,0005.90,0003.23,0002.29
